This is the latest recevied weather packets stored in our database for station/object N7WSS. If no packets are shown the sender has not sent any weather packets the latest 10 day(s).
| Time | Temp. | Humidity | Pressure | Rain* | Wind** | Luminosity | Snow |
|---|---|---|---|---|---|---|---|
| 1777637218 | 11.67° C | 77% | 1010.2 hPa | 0 mm | - | - | - |
| 1777636914 | 11.67° C | 77% | 1010 hPa | 0 mm | - | - | - |
| 1777636610 | 11.67° C | 76% | 1010 hPa | 0 mm | - | - | - |
| 1777636306 | 12.22° C | 75% | 1010.1 hPa | 0 mm | - | - | - |
| 1777636001 | 12.22° C | 75% | 1009.7 hPa | 0 mm | - | - | - |
| 1777635697 | 12.22° C | 74% | 1009.6 hPa | 0 mm | - | - | - |
| 1777635394 | 12.78° C | 73% | 1009.9 hPa | 0 mm | - | - | - |
| 1777635091 | 12.78° C | 73% | 1009.9 hPa | 0 mm | - | - | - |
| 1777634787 | 13.33° C | 72% | 1009.4 hPa | 0 mm | - | - | - |
| 1777634485 | 13.33° C | 71% | 1009.6 hPa | 0 mm | - | - | - |
| 1777634181 | 13.33° C | 70% | 1009.6 hPa | 0 mm | - | - | - |
| 1777633877 | 13.89° C | 69% | 1009.6 hPa | 0 mm | - | - | - |
| 1777633576 | 13.33° C | 69% | 1009.6 hPa | 0 mm | - | - | - |
| 1777633273 | 13.89° C | 68% | 1009.7 hPa | 0 mm | - | - | - |
| 1777632970 | 13.89° C | 67% | 1009.5 hPa | 0 mm | - | - | - |
| 1777632667 | 13.89° C | 67% | 1009.7 hPa | 0 mm | - | - | - |
| 1777632363 | 13.89° C | 67% | 1009.5 hPa | 0 mm | - | - | - |
| 1777632061 | 13.33° C | 68% | 1009.5 hPa | 0 mm | - | - | - |
| 1777631758 | 13.89° C | 68% | 1009.5 hPa | 0 mm | - | - | - |
| 1777631455 | 13.89° C | 67% | 1009.5 hPa | 0 mm | - | - | - |
| 1777631152 | 13.89° C | 67% | 1009.5 hPa | 0 mm | - | - | - |
| 1777630850 | 13.89° C | 68% | 1009.3 hPa | 0 mm | - | - | - |
| 1777630545 | 13.89° C | 67% | 1009.4 hPa | 0 mm | - | - | - |
| 1777630242 | 14.44° C | 67% | 1009.7 hPa | 0 mm | - | - | - |
| 1777629940 | 14.44° C | 66% | 1009.4 hPa | 0 mm | - | - | - |
* Rain latest hour (hover to see other rain measurements)
** Current wind speed in m/s (hover to see current wind gust speed)